CZ-6A DEB, 61477

Orbit data source: Space-Track

CZ-6A DEB, 61477 is space debris in LEO originally from a launch on Tue, 06 Aug 2024 UTC launched from the Taiyaun Space Center, China (TSC). Debris objects in space refer to the collection of defunct objects orbiting the Earth. Examples of debris include non-operational satellites, rocket bodies, and fragments generated from explosions, collisions, or faulty payload assembly.

Loading next visibility...
Identifier
61477, 2024-140AAK
Orbit
LEO
Country
Flag of CNCN / PRC
Related business
Manufacturer
SAST
Mission
Spacecraft
Bus & Motor
Unknown
Mass
Unknown
Launch date (UTC)
2024-08-06 (1 year ago)
Launch vehicle
Unknown
Launch site
Taiyaun Space Center, China (TSC)
Object type
Payload
Rocket body
Debris
Shape & HBR
Unknown
Radar Cross Section
Small (<0.1 m²)

Expand to show TLE details & history
Last TLE update: 18 hours ago

TLE from 18 hours ago
0 CZ-6A DEB
1 61477U 24140AAK 25261.08537720  .00005555  00000-0  11045-2 0  9997
2 61477  89.0421 304.6891 0105198 114.5391 246.6830 14.58492385 55132
Epoch: 2025-09-18T02:02Z
TLE epoch observation values (Epoch: 2025-09-18T02:02:56.59Z)
Latitude
-0.00004°
Longitude
-83.29873°
Altitude
731.283 km
Speed
7.473 km/s
True Right ascension
20h 18m 45s
True Declination
0° 00' 00"
Sunlit
Object was in full shadow at epoch
Visualization orbit readout
Latitude
Unknown
Longitude
Unknown
Altitude
Unknown
Speed
Unknown
Apparent Right ascension
Unknown
Apparent Declination
Unknown
Sunlit
N/A
Visualization observer readout
Local Sidereal Time
12:58:47
Azimuth
Unknown
Elevation
Unknown
Doppler factor
Unknown
Orbital elements
Apogee altitude
769.349 km
Perigee altitude
620.534 km
Semi-major axis
7,073.079 km
Eccentricity
0.01052
Inclination
89.0421°
RAAN
304.6891°
Arg. of periapsis
114.5391°
True anomaly
245.58177°
Mean anomaly
246.683°
Eccentric anomaly
246.13181°
Mean motion
3.64864 °/min
Orbital period
98.67 mins
BSTAR
0.0011045
Loading maneuver chart data...
Computing Atmospheric mass density...
Loading historical data...
Loading historical data...
Loading historical data...
Loading historical data...
Loading historical data...
Loading historical data...
Loading historical data...

Documentation

Showing up to 5 results
|